The following orbital elements are taken from MPC 58540:
Epoch 2008 May 14.0 TT = JDT 2454600.5
T 2008 May 9.1170 TT MPC
q 3.893979 (2000.0) P Q
n 0.1030437 Peri. 161.6770 -0.9746770 -0.2212149
a 4.505971 Node 5.8431 +0.1429124 -0.7286588
e 0.135818 Incl. 18.7306 +0.1719908 -0.6481668
P 9.56
From 54 observations 1954-2006, mean residual 0".7.